When you browse on this site, cookies collect data to enhance your experience and personalize the content and advertising you see.
Visit our Privacy Policy to learn more. By continuing to use the site, you agree to this use of cookies and data.

Météo par heure à Setif

Ce jour, 7 Août, Vendredi

Heure Température Précipitation Vent Pression Humidité
00:00 +20°C° 0 mm 1 m/s 674 mmHg 53%
01:00 +20°C° 0 mm 1 m/s 674 mmHg 54%
02:00 +19°C° 0 mm 1 m/s 673 mmHg 54%
03:00 +19°C° 0 mm 1 m/s 673 mmHg 55%
04:00 +20°C° 0 mm 1 m/s 673 mmHg 52%
05:00 +21°C° 0 mm 1 m/s 674 mmHg 49%
06:00 +20°C° 0 mm 0 m/s 675 mmHg 44%
07:00 +24°C° 0 mm 1 m/s 675 mmHg 38%
08:00 +26°C° 0 mm 1 m/s 676 mmHg 32%
09:00 +27°C° 0 mm 1 m/s 676 mmHg 26%
10:00 +29°C° 0 mm 2 m/s 676 mmHg 22%
11:00 +30°C° 0 mm 2 m/s 676 mmHg 19%
12:00 +31°C° 0 mm 3 m/s 677 mmHg 16%
13:00 +33°C° 0 mm 4 m/s 677 mmHg 16%
14:00 +33°C° 0 mm 4 m/s 677 mmHg 16%
15:00 +33°C° 0 mm 5 m/s 676 mmHg 16%
16:00 +32°C° 0 mm 5 m/s 676 mmHg 20%
17:00 +29°C° 0 mm 5 m/s 676 mmHg 24%
18:00 +27°C° 0 mm 5 m/s 676 mmHg 28%
19:00 +26°C° 0 mm 4 m/s 675 mmHg 34%
20:00 +24°C° 0 mm 3 m/s 675 mmHg 40%
21:00 +21°C° 0 mm 2 m/s 675 mmHg 46%
22:00 +22°C° 0 mm 1 m/s 675 mmHg 46%
23:00 +21°C° 0 mm 1 m/s 675 mmHg 45%

Demain, 8 Août, Samedi

Heure Température Précipitation Vent Pression Humidité
00:00 +21°C° 0 mm 1 m/s 675 mmHg 45%
01:00 +20°C° 0 mm 1 m/s 675 mmHg 45%
02:00 +18°C° 0 mm 0 m/s 675 mmHg 46%
03:00 +18°C° 0 mm 0 m/s 674 mmHg 46%
04:00 +18°C° 0 mm 0 m/s 675 mmHg 44%
05:00 +19°C° 0 mm 0 m/s 675 mmHg 42%
06:00 +20°C° 0 mm 0 m/s 676 mmHg 41%
07:00 +24°C° 0 mm 1 m/s 676 mmHg 36%
08:00 +25°C° 0 mm 1 m/s 677 mmHg 32%
09:00 +27°C° 0 mm 2 m/s 677 mmHg 27%
10:00 +28°C° 0 mm 3 m/s 677 mmHg 25%
11:00 +30°C° 0 mm 4 m/s 677 mmHg 22%
12:00 +32°C° 0 mm 5 m/s 677 mmHg 20%
13:00 +32°C° 0 mm 5 m/s 677 mmHg 19%
14:00 +32°C° 0 mm 6 m/s 677 mmHg 19%
15:00 +32°C° 0 mm 6 m/s 677 mmHg 19%
16:00 +30°C° 0 mm 6 m/s 676 mmHg 23%
17:00 +29°C° 0 mm 5 m/s 676 mmHg 26%
18:00 +27°C° 0 mm 5 m/s 675 mmHg 30%
19:00 +26°C° 0 mm 4 m/s 675 mmHg 36%
20:00 +24°C° 0 mm 3 m/s 675 mmHg 41%
21:00 +23°C° 0 mm 2 m/s 675 mmHg 47%
22:00 +21°C° 0 mm 2 m/s 675 mmHg 49%
23:00 +22°C° 0 mm 1 m/s 675 mmHg 51%

Après-demain, 9 Août, Dimanche

Heure Température Précipitation Vent Pression Humidité
00:00 +21°C° 0 mm 1 m/s 674 mmHg 53%
01:00 +21°C° 0 mm 1 m/s 674 mmHg 54%
02:00 +20°C° 0 mm 1 m/s 674 mmHg 55%
03:00 +20°C° 0 mm 1 m/s 673 mmHg 56%
04:00 +19°C° 0 mm 0 m/s 674 mmHg 53%
05:00 +19°C° 0 mm 0 m/s 674 mmHg 49%
06:00 +20°C° 0 mm 0 m/s 675 mmHg 46%
07:00 +22°C° 0 mm 0 m/s 675 mmHg 40%
08:00 +26°C° 0 mm 1 m/s 675 mmHg 34%
09:00 +28°C° 0 mm 1 m/s 676 mmHg 27%
10:00 +29°C° 0 mm 2 m/s 676 mmHg 24%
11:00 +30°C° 0 mm 2 m/s 676 mmHg 21%
12:00 +33°C° 0 mm 3 m/s 676 mmHg 17%
13:00 +33°C° 0 mm 4 m/s 676 mmHg 17%
14:00 +33°C° 0 mm 5 m/s 675 mmHg 17%
15:00 +34°C° 0 mm 5 m/s 675 mmHg 16%
16:00 +32°C° 0 mm 5 m/s 674 mmHg 20%
17:00 +30°C° 0 mm 5 m/s 674 mmHg 23%
18:00 +29°C° 0 mm 5 m/s 674 mmHg 27%
19:00 +27°C° 0 mm 4 m/s 674 mmHg 32%
20:00 +25°C° 0 mm 3 m/s 674 mmHg 38%
21:00 +24°C° 0 mm 1 m/s 674 mmHg 43%
22:00 +23°C° 0 mm 1 m/s 673 mmHg 45%
23:00 +22°C° 0 mm 1 m/s 673 mmHg 46%

10 Août, Lundi

Heure Température Précipitation Vent Pression Humidité
00:00 +22°C° 0 mm 1 m/s 672 mmHg 47%
01:00 +21°C° 0 mm 1 m/s 672 mmHg 49%
02:00 +21°C° 0 mm 1 m/s 672 mmHg 50%
03:00 +18°C° 0 mm 0 m/s 671 mmHg 51%
04:00 +21°C° 0 mm 1 m/s 672 mmHg 49%
05:00 +22°C° 0 mm 1 m/s 672 mmHg 46%
06:00 +23°C° 0 mm 1 m/s 673 mmHg 43%
07:00 +25°C° 0 mm 1 m/s 673 mmHg 36%
08:00 +27°C° 0 mm 1 m/s 674 mmHg 30%
09:00 +29°C° 0 mm 1 m/s 674 mmHg 24%
10:00 +30°C° 0 mm 2 m/s 674 mmHg 22%
11:00 +31°C° 0 mm 2 m/s 674 mmHg 19%
12:00 +34°C° 0 mm 2 m/s 675 mmHg 17%
13:00 +34°C° 0 mm 3 m/s 674 mmHg 16%
14:00 +35°C° 0 mm 4 m/s 674 mmHg 14%
15:00 +35°C° 0 mm 5 m/s 674 mmHg 13%
16:00 +34°C° 0 mm 5 m/s 674 mmHg 15%
17:00 +33°C° 0 mm 4 m/s 673 mmHg 16%
18:00 +32°C° 0 mm 4 m/s 673 mmHg 17%
19:00 +29°C° 0 mm 3 m/s 673 mmHg 22%
20:00 +27°C° 0 mm 2 m/s 673 mmHg 27%
21:00 +26°C° 0 mm 1 m/s 673 mmHg 32%
22:00 +25°C° 0 mm 1 m/s 673 mmHg 34%
23:00 +24°C° 0 mm 1 m/s 672 mmHg 37%

11 Août, Mardi

Heure Température Précipitation Vent Pression Humidité
00:00 +24°C° 0 mm 1 m/s 672 mmHg 39%
01:00 +23°C° 0 mm 1 m/s 672 mmHg 41%
02:00 +23°C° 0 mm 1 m/s 672 mmHg 43%
03:00 +22°C° 0 mm 1 m/s 671 mmHg 45%
04:00 +23°C° 0 mm 1 m/s 672 mmHg 44%
05:00 +24°C° 0 mm 1 m/s 672 mmHg 42%
06:00 +25°C° 0 mm 1 m/s 673 mmHg 40%
07:00 +26°C° 0 mm 2 m/s 674 mmHg 35%
08:00 +28°C° 0 mm 3 m/s 674 mmHg 30%
09:00 +30°C° 0 mm 4 m/s 675 mmHg 25%
10:00 +33°C° 0 mm 3 m/s 675 mmHg 22%
11:00 +34°C° 0 mm 3 m/s 675 mmHg 20%
12:00 +35°C° 0 mm 3 m/s 675 mmHg 17%
13:00 +35°C° 0 mm 3 m/s 675 mmHg 16%
14:00 +36°C° 0 mm 4 m/s 674 mmHg 15%
15:00 +36°C° 0 mm 5 m/s 674 mmHg 14%
16:00 +35°C° 0 mm 4 m/s 674 mmHg 16%
17:00 +34°C° 0 mm 3 m/s 674 mmHg 18%
18:00 +33°C° 0 mm 3 m/s 673 mmHg 20%
19:00 +30°C° 0 mm 2 m/s 673 mmHg 23%
20:00 +28°C° 0 mm 2 m/s 673 mmHg 26%
21:00 +27°C° 0 mm 1 m/s 673 mmHg 30%
22:00 +27°C° 0 mm 1 m/s 673 mmHg 31%
23:00 +26°C° 0 mm 1 m/s 673 mmHg 32%

12 Août, Mercredi

Heure Température Précipitation Vent Pression Humidité
00:00 +26°C° 0 mm 1 m/s 673 mmHg 33%
01:00 +26°C° 0 mm 1 m/s 672 mmHg 34%
02:00 +25°C° 0 mm 1 m/s 672 mmHg 35%
03:00 +25°C° 0 mm 1 m/s 672 mmHg 36%
04:00 +25°C° 0 mm 1 m/s 672 mmHg 36%
05:00 +26°C° 0 mm 1 m/s 672 mmHg 35%
06:00 +26°C° 0 mm 1 m/s 673 mmHg 34%
07:00 +28°C° 0 mm 2 m/s 673 mmHg 31%
08:00 +30°C° 0 mm 3 m/s 674 mmHg 27%
09:00 +33°C° 0 mm 4 m/s 674 mmHg 23%
10:00 +34°C° 0 mm 4 m/s 675 mmHg 22%
11:00 +35°C° 0 mm 4 m/s 675 mmHg 21%
12:00 +36°C° 0 mm 4 m/s 675 mmHg 19%
13:00 +36°C° 0 mm 4 m/s 674 mmHg 19%
14:00 +36°C° 0 mm 4 m/s 674 mmHg 19%
15:00 +36°C° 0 mm 4 m/s 674 mmHg 19%
16:00 +35°C° 0 mm 4 m/s 674 mmHg 20%
17:00 +34°C° 0 mm 3 m/s 673 mmHg 22%
18:00 +31°C° 0 mm 3 m/s 673 mmHg 24%
19:00 +30°C° 0 mm 2 m/s 673 mmHg 26%
20:00 +28°C° 0 mm 1 m/s 673 mmHg 29%
21:00 +27°C° 0 mm 1 m/s 673 mmHg 31%
22:00 +27°C° 0 mm 1 m/s 673 mmHg 32%
23:00 +26°C° 0 mm 1 m/s 673 mmHg 32%
Voir plus